Location: Rounton
(54.4000°N, 1.3500°W)
Time: 20:41:26
(UTC+00:00)

A-11 Canister half - Pass Details

Date: 03 December 2021
Orbit: 1516 x 1684 km, 47.2° (Epoch: 19 January)

Event Time Altitude Azimuth Distance (km) Brightness Sun altitude
Rises 07:36:06 0° 222° (SW) 4,772 11.5 -4.4°
Reaches altitude 10° 07:39:22 10° 216° (SW) 3,813 11.1 -4.0°
Maximum altitude 07:48:11 41° 151° (SSE) 2,243 10.6 -2.9°
Drops below altitude 10° 07:57:16 10° 86° (E) 3,930 12.0 -1.9°
Sets 08:00:41 0° 80° (E) 4,931 12.4 -1.5°
